TimePST,TemperatureF,Dew PointF,Humidity,Sea Level PressureIn,VisibilityMPH,Wind Direction,Wind SpeedMPH,Gust SpeedMPH,PrecipitationIn,Events,Conditions,WindDirDegrees,DateUTC
12:56 AM,46.9,36.0,66,30.03,-9999.0,West,17.3,-,N/A,,Overcast,270,2013-03-06 08:56:00
1:56 AM,46.9,36.0,66,30.02,-9999.0,WSW,17.3,-,N/A,,Overcast,250,2013-03-06 09:56:00
2:56 AM,46.0,35.1,66,30.02,-9999.0,WSW,25.3,33.4,N/A,,Mostly Cloudy,240,2013-03-06 10:56:00
3:10 AM,44.6,35.6,71,30.02,-9999.0,SW,18.4,31.1,N/A,,Scattered Clouds,230,2013-03-06 11:10:00
3:56 AM,45.0,35.1,68,30.03,-9999.0,SW,19.6,-,N/A,,Clear,220,2013-03-06 11:56:00
4:56 AM,44.1,35.1,71,30.04,-9999.0,SW,13.8,-,N/A,,Clear,230,2013-03-06 12:56:00
5:56 AM,43.0,34.0,71,30.05,-9999.0,SW,9.2,-,N/A,,Clear,220,2013-03-06 13:56:00
6:56 AM,45.0,35.1,68,30.06,-9999.0,SW,17.3,-,N/A,,Clear,230,2013-03-06 14:56:00
7:56 AM,46.9,35.1,63,30.07,-9999.0,SW,20.7,25.3,N/A,,Clear,230,2013-03-06 15:56:00
8:56 AM,50.0,36.0,59,30.08,-9999.0,WSW,25.3,29.9,N/A,,Clear,240,2013-03-06 16:56:00
9:56 AM,53.1,36.0,52,30.06,-9999.0,WSW,17.3,26.5,N/A,,Clear,240,2013-03-06 17:56:00
10:56 AM,54.0,37.0,53,30.06,-9999.0,SW,24.2,28.8,N/A,,Clear,220,2013-03-06 18:56:00
11:56 AM,57.0,37.0,47,30.04,-9999.0,SW,24.2,31.1,N/A,,Clear,230,2013-03-06 19:56:00
12:56 PM,55.9,37.0,49,30.02,-9999.0,SW,24.2,33.4,N/A,,Clear,230,2013-03-06 20:56:00
1:56 PM,55.9,37.9,51,30.02,-9999.0,SW,25.3,32.2,N/A,,Clear,230,2013-03-06 21:56:00
2:56 PM,54.0,39.0,57,30.02,-9999.0,SW,21.9,28.8,N/A,,Clear,230,2013-03-06 22:56:00
3:56 PM,54.0,39.9,59,30.01,-9999.0,WSW,17.3,-,N/A,,Overcast,240,2013-03-06 23:56:00
4:56 PM,52.0,39.0,61,30.01,-9999.0,SW,12.7,-,N/A,,Clear,230,2013-03-07 00:56:00
5:56 PM,48.9,39.9,71,30.03,-9999.0,SW,16.1,-,N/A,,Partly Cloudy,230,2013-03-07 01:56:00
6:56 PM,48.0,39.9,74,30.01,-9999.0,SW,13.8,-,N/A,,Clear,220,2013-03-07 02:56:00
7:56 PM,48.0,37.9,68,30.01,-9999.0,SW,9.2,-,N/A,,Clear,230,2013-03-07 03:56:00
8:56 PM,46.9,37.9,71,30.00,-9999.0,SW,15.0,-,N/A,,Clear,220,2013-03-07 04:56:00
9:56 PM,46.9,39.0,74,30.00,-9999.0,SW,11.5,-,N/A,,Mostly Cloudy,230,2013-03-07 05:56:00
10:56 PM,46.9,39.0,74,29.99,-9999.0,SW,12.7,-,N/A,,Overcast,230,2013-03-07 06:56:00
11:56 PM,46.0,37.9,73,29.98,-9999.0,WSW,15.0,-,N/A,,Clear,250,2013-03-07 07:56:00